IRIDIUM 33 DEB, 35806

Orbit data source: Space-Track

IRIDIUM 33 DEB, 35806 is space debris in LEO originally from a launch on Sun, 14 Sep 1997 UTC launched from the Tyuratam Missile And Space Complex (TTMTR). The debris from Iridium 33, an American commercial communications satellite, has been tracked extensively since its accidental collision with the defunct Russian satellite Cosmos 2251 in 2009. This event, occurring at high speed in low Earth orbit (LEO), generated thousands of pieces of space debris, significantly increasing the risk of further collisions. The Iridium 33 debris cloud has impacted space traffic management and orbital debris mitigation strategies, making it a subject of ongoing study in space situational awareness.

Loading next visibility...
Identifier
35806, 1997-051SQ
Orbit
LEO
Country
Flag of USUS
Related business
Manufacturer
Unknown
Mission
Spacecraft
Bus & Motor
Unknown
Mass
Unknown
Launch date (UTC)
1997-09-14 (29 years ago)
Launch vehicle
Unknown
Launch site
Tyuratam Missile And Space Complex (TTMTR)
Object type
Payload
Rocket body
Debris
Shape & HBR
Unknown shape, 0.1 m
Radar Cross Section
Small (<0.1 m²)

Expand to show TLE details & history
Last TLE update: 1 day ago

TLE from 1 day ago
0 IRIDIUM 33 DEB
1 35806U 97051SQ  26262.26837131  .00002540  00000-0  52601-3 0  9991
2 35806  86.3385 256.7858 0012544 187.0537 173.0499 14.59868229904140
Epoch: 2026-09-19T06:26Z
TLE epoch observation values (Epoch: 2026-09-19T06:26:27.281Z)
Latitude
0.00004°
Longitude
161.99279°
Altitude
705.494 km
Speed
7.498 km/s
True Right ascension
17h 07m 08s
True Declination
0° 00' 00"
Sunlit
Object was in daylight at epoch
Visualization orbit readout
Latitude
Unknown
Longitude
Unknown
Altitude
Unknown
Speed
Unknown
Apparent Right ascension
Unknown
Apparent Declination
Unknown
Sunlit
N/A
Visualization observer readout
Local Sidereal Time
03:48:39
Azimuth
Unknown
Elevation
Unknown
Doppler factor
Unknown
Orbital elements
Apogee altitude
699.396 km
Perigee altitude
681.662 km
Semi-major axis
7,068.666 km
Eccentricity
0.00125
Inclination
86.3385°
RAAN
256.7858°
Arg. of periapsis
187.0537°
True anomaly
173.06727°
Mean anomaly
173.0499°
Eccentric anomaly
173.05859°
Mean motion
3.65205 °/min
Orbital period
98.57 mins
BSTAR
0.00052601
Loading maneuver chart data...
Computing Atmospheric mass density...

Documentation

Showing up to 5 results
|